Location: Unspecified
(51.0950°N, 12.9690°E)
Time: 15:49:10
(UTC+00:00)

BEESAT - Pass Details

Date: 03 May 2024
Orbit: 692 x 702 km, 98.5° (Epoch: 20 May)

Event Time Altitude Azimuth Distance (km) Brightness Sun altitude
Rises 21:03:34 0° 17° (NNE) 3,082 ? -17.8°
Reaches altitude 10° 21:05:52 10° 22° (NNE) 2,160 ? -18.0°
Maximum altitude 21:10:31 56° 101° (E) 824 ? -18.4°
Enters shadow 21:12:07 37° 159° (SSE) 1,072 ? -18.5°
